This demonstration page uses our WeatherBlox Daily Observations layout. Learn more.

41.55636, -103.73856

Hourly Observations for December 7, 2015

Temp ( °F °C ) Dew Point ( °F °C ) Humidity (%) Winds ( mph kmh ) Pressure ( in mb ) Visibility ( mi km ) Precip ( " mm )
12:53 am 00:53 Clear 45 7.2 13 -10.6 27 27 WNW 14 22 30.06 1018 10 16.0934 0 0
1:53 am 01:53 Clear 46 7.8 14 -10 27 27 WNW 20 31 30.07 1018 10 16.0934 0 0
2:53 am 02:53 Clear 42 5.6 15 -9.4 33 33 WNW 18 30 30.09 1019 10 16.0934 0 0
3:53 am 03:53 Clear 42 5.6 16 -8.9 35 35 NW 18 30 30.1 1019 10 16.0934 0 0
4:53 am 04:53 Clear 39 3.9 17 -8.3 41 41 NW 12 19 30.13 1020 10 16.0934 0 0
5:53 am 05:53 Clear 31 -0.6 17 -8.3 56 56 NW 10 17 30.19 1022 10 16.0934 0 0
6:53 am 06:53 Clear 31 -0.6 17 -8.3 56 56 SW 6 9 30.17 1022 10 16.0934 0 0
7:53 am 07:53 Sunny 33 0.6 19 -7.2 56 56 SSE 3 6 30.18 1022 10 16.0934 0 0
8:53 am 08:53 Sunny 37 2.8 22 -5.6 54 54 E 3 6 30.16 1022 10 16.0934 0 0
9:53 am 09:53 Sunny 41 5 21 -6.1 45 45 E 6 9 30.13 1020 10 16.0934 0 0
10:53 am 10:53 Sunny 48 8.9 20 -6.7 33 33 SE 8 13 30.05 1018 10 16.0934 0 0
11:53 am 11:53 Sunny 49 9.4 22 -5.6 35 35 E 9 15 29.98 1015 10 16.0934 0 0
12:53 pm 12:53 Sunny 51 10.6 23 -5 33 33 E 9 15 29.93 1014 10 16.0934 0 0
1:53 pm 13:53 Sunny 53 11.7 23 -5 31 31 Calm 29.9 1012 10 16.0934 0 0
2:53 pm 14:53 Sunny 58 14.4 18 -7.8 21 21 SW 8 13 29.87 1012 10 16.0934 0 0
3:53 pm 15:53 Sunny 53 11.7 18 -7.8 25 25 S 8 13 29.87 1011 10 16.0934 0 0
6:53 pm 18:53 Clear 38 3.3 17 -8.3 43 43 E 7 11 29.89 1012 10 16.0934 0 0
7:53 pm 19:53 Clear 40 4.4 19 -7.2 43 43 E 7 11 29.86 1011 10 16.0934 0 0
8:53 pm 20:53 Clear 41 5 20 -6.7 43 43 E 5 7 29.83 1010 10 16.0934 0 0
9:53 pm 21:53 Mostly Cloudy 46 7.8 20 -6.7 35 35 WSW 9 15 29.77 1008 10 16.0934 0 0
10:53 pm 22:53 Partly Cloudy 49 9.4 21 -6.1 33 33 W 9 15 29.73 1007 10 16.0934 0 0
11:53 pm 23:53 Clear 57 13.9 26 -3.3 30 30 W 26 43 29.71 1006 10 16.0934 0 0

Powered by AerisWeather